User: anonymous   Login
Location: Unspecified
(0.0000°N, 0.0000°E)
Time: 08:53:41
(UTC+00:00)
Language:

USA 270 - Orbit

View from above orbital plane
View from above orbital plane
View from above satellite
View from above satellite

Ground track
Ground track

The orbit data is extracted from the following two-line orbital elements,

1 41744U 16052A   17126.34859015 0.00000000  00000-0  00000-0 0    09
2 41744   0.3550  69.2629 0001170  76.6303 283.3697  1.00272300    06
Epoch (UTC): 06 May 2017 08:21:58
Eccentricity: 0.0001170
inclination: 0.3550°
perigee height: 35781 km
apogee height: 35791 km
right ascension of ascending node: 69.2629°
argument of perigee: 76.6303°
revolutions per day: 1.00272300
mean anomaly at epoch: 283.3697°
orbit number at epoch: 0

The dashed part of the orbit path shows where the satellite is in the earth's shadow,  

DLR